This is the latest recevied weather packets stored in our database for station/object OH6HPS. If no packets are shown the sender has not sent any weather packets the latest 10 day(s).
| Time | Temp. | Humidity | Pressure | Rain* | Wind** | Luminosity | Snow |
|---|---|---|---|---|---|---|---|
| 1777813578 | 16.67° C | 52% | 1007.6 hPa | 0 mm | - | 332 W/m² | - |
| 1777812978 | 16.67° C | 52% | 1007.7 hPa | 0 mm | - | 394 W/m² | - |
| 1777812377 | 16.67° C | 53% | 1007.7 hPa | 0 mm | - | 573 W/m² | - |
| 1777811804 | 16.67° C | 53% | 1007.8 hPa | 0 mm | - | 338 W/m² | - |
| 1777811179 | 16.11° C | 53% | 1007.8 hPa | 0 mm | - | 331 W/m² | - |
| 1777810576 | 16.67° C | 52% | 1007.6 hPa | 0 mm | - | 283 W/m² | - |
| 1777809975 | 17.22° C | 53% | 1007.7 hPa | 0 mm | - | 382 W/m² | - |
| 1777809376 | 16.67° C | 54% | 1007.8 hPa | 0 mm | - | 561 W/m² | - |
| 1777808775 | 16.67° C | 56% | 1007.8 hPa | 0 mm | - | 470 W/m² | - |
| 1777808176 | 16.11° C | 56% | 1007.9 hPa | 0 mm | - | 533 W/m² | - |
| 1777807575 | 16.11° C | 56% | 1007.8 hPa | 0 mm | - | 536 W/m² | - |
| 1777806979 | 16.11° C | 55% | 1007.8 hPa | 0 mm | - | 703 W/m² | - |
| 1777806374 | 16.11° C | 57% | 1007.8 hPa | 0 mm | - | 675 W/m² | - |
| 1777805774 | 15.56° C | 56% | 1007.8 hPa | 0 mm | - | 304 W/m² | - |
| 1777805174 | 16.11° C | 57% | 1007.7 hPa | 0 mm | - | 484 W/m² | - |
| 1777804574 | 15.56° C | 58% | 1007.8 hPa | 0 mm | - | 691 W/m² | - |
| 1777803973 | 15° C | 60% | 1007.9 hPa | 0 mm | - | 209 W/m² | - |
| 1777803373 | 15° C | 60% | 1008 hPa | 0 mm | - | 740 W/m² | - |
| 1777802773 | 15.56° C | 59% | 1008.1 hPa | 0 mm | - | 194 W/m² | - |
| 1777802173 | 15.56° C | 60% | 1008 hPa | 0 mm | - | 696 W/m² | - |
| 1777801573 | 15° C | 61% | 1007.9 hPa | 0 mm | - | 726 W/m² | - |
| 1777800972 | 15° C | 63% | 1007.8 hPa | 0 mm | - | 675 W/m² | - |
| 1777800371 | 14.44° C | 62% | 1007.9 hPa | 0 mm | - | 630 W/m² | - |
| 1777799773 | 14.44° C | 65% | 1007.9 hPa | 0 mm | - | 638 W/m² | - |
| 1777799172 | 14.44° C | 66% | 1007.8 hPa | 0 mm | - | 652 W/m² | - |
* Rain latest hour (hover to see other rain measurements)
** Current wind speed in m/s (hover to see current wind gust speed)